Location: Kuffner-Sternwarte
(48.2130°N, 16.2960°E)
Time: 18:53:19
(UTC+02:00)

COROT - Pass Details

Date: 24 May 2017
Orbit: 600 x 890 km, 90.0° (Epoch: 24 September)

Event Time Altitude Azimuth Distance (km) Brightness Sun altitude
Rises 22:14:47 0° 356° (N) 3,177 10.2 -12.5°
Reaches altitude 10° 22:17:17 10° 349° (N) 2,201 9.5 -12.7°
Maximum altitude 22:21:47 40° 281° (W) 995 7.0 -13.2°
Drops below altitude 10° 22:25:57 10° 212° (SSW) 2,034 8.0 -13.6°
Enters shadow 22:27:50 - 205° (SSW) 2,770 8.6 -13.7°
